Simultaneous Nadir Overpasses (SNOs) Predictions

Prediction of SNOs between GOES-17 and METOP-A Satellite Orbit:

Table of predicted SNOs for the next 14.0 days since TLE Epoch: 10/17/2020
Index Date Time (GOES-17) GOES-17 Lat,Lon METOP-A Lat,Lon Distance(km) Time Diff (sec)
1 10/17/2020 17:24:15 -0.04,-137.21 -0.91,-133.30 445.39 80
2 10/19/2020 05:40:35 0.04,-137.20 -0.13,-137.93 83.10 80
3 10/20/2020 05:22:36 0.04,-137.20 0.96,-132.95 483.50 80
4 10/21/2020 17:38:48 -0.04,-137.19 0.06,-137.55 41.37 80
5 10/24/2020 05:37:09 0.03,-137.16 -0.00,-137.20 5.41 80
6 10/26/2020 17:38:02 -0.03,-137.14 -0.07,-136.82 36.16 80
7 10/28/2020 05:57:03 0.03,-137.12 -0.91,-141.46 493.65 80
8 10/29/2020 05:36:24 0.02,-137.11 0.19,-136.48 72.17 80
9 10/30/2020 17:52:36 -0.02,-137.09 0.83,-141.08 454.04 80
